Location: *
(41.7492°S, 135.4150°W)
Time: 17:45:48
(UTC+00:00)

Cosmos 839 Rocket - Pass Details

Date: 20 September 2021
Orbit: 962 x 2091 km, 65.9° (Epoch: 15 October)

Event Time Altitude Azimuth Distance (km) Brightness Sun altitude
Exits shadow 13:34:41 10° 327° (NNW) 2,738 5.9 -15.4°
Maximum altitude 13:41:00 83° 238° (WSW) 1,118 4.2 -14.3°
Drops below altitude 10° 13:48:45 10° 149° (SSE) 3,327 7.4 -12.9°
Sets 13:51:54 0° 148° (SSE) 4,464 8.1 -12.3°
